Flag for U.S.A. Weather past 2 weeks in Huntington Beach, California, U.S.A.

Now
60 °F

Broken clouds.


Feels Like: 60 °F
Forecast: 59 / 66 °F
Wind: No wind

Location: John Wayne Airport-Orange County Airport

Current Time: May 22, 2015 at 7:59:33 AM

Latest Report: May 22, 2015 at 6:53 AM


Visibility: 10 mi

Pressure: 30.00 "Hg

Humidity: 72%

Dew point: 51 °F

Location of Huntington BeachLocation

Historic Weather in Huntington Beach — Graph

°F

Huntington Beach temperature yesterday

Maximum temperature yesterday: 68 °F (at 12:53 PM)
Minimum temperature yesterday: 60 °F (at 2:53 AM)
Average temperature yesterday: 63 °F

Past Weeks' High & Low Weather Summary

 TemperatureHumidityPressure
High71 °F (May 10, 1:53 PM)87% (May 11, 2:53 AM)30.08 "Hg (May 11, 2:53 AM)
Low53 °F (May 8, 4:53 AM)44% (May 21, 12:53 PM)29.81 "Hg (May 11, 6:53 PM)
Average61 °F68%29.96 "Hg
* Reported May 7 6:53 AM — May 22 6:53 AM, Huntington Beach, Weather by CustomWeather, © 2015

Note: Actual official high and low records may vary slightly from our data, if they occured in-between our weather recording intervals... More about our weather records

Advertising

Huntington Beach weather history for previous 24 hours

 ConditionsComfort  
Time TempWeatherWind HumidityBarometerVisibility
6:53 AM
Fri, May 22
60 °FBroken clouds.No wind72%30.00 "Hg10 mi
5:53 AM58 °FPartly cloudy.No wind81%29.99 "Hg10 mi
4:53 AM60 °FOvercast.6 mph72%29.98 "Hg10 mi
3:53 AM60 °FOvercast.No wind69%29.98 "Hg10 mi
2:53 AM61 °FClear.No wind67%29.98 "Hg10 mi
1:53 AM61 °FPassing clouds.3 mph70%29.98 "Hg10 mi
12:53 AM61 °FPartly cloudy.5 mph72%29.99 "Hg10 mi
11:53 PM
Thu, May 21
61 °FPassing clouds.6 mph67%29.99 "Hg10 mi
10:53 PM62 °FMostly cloudy.5 mph67%29.99 "Hg10 mi
9:53 PM62 °FMostly cloudy.3 mph67%29.98 "Hg10 mi
8:53 PM62 °FOvercast.8 mph70%29.97 "Hg10 mi
7:53 PM62 °FBroken clouds.7 mph65%29.96 "Hg10 mi
6:53 PM63 °FBroken clouds.8 mph63%29.95 "Hg10 mi
5:53 PM65 °FScattered clouds.7 mph54%29.93 "Hg10 mi
4:53 PM66 °FScattered clouds.8 mph54%29.93 "Hg10 mi
3:53 PM68 °FScattered clouds.12 mph49%29.94 "Hg10 mi
2:53 PM67 °FScattered clouds.14 mph51%29.96 "Hg10 mi
1:53 PM68 °FScattered clouds.15 mph45%29.96 "Hg10 mi
12:53 PM68 °FBroken clouds.12 mph44%29.97 "Hg10 mi
11:53 AM65 °FBroken clouds.8 mph54%29.97 "Hg10 mi
10:53 AM63 °FBroken clouds.5 mph58%29.96 "Hg10 mi
9:53 AM63 °FBroken clouds.No wind60%29.96 "Hg10 mi
9:03 AM61 °FMostly cloudy.No wind72%29.96 "Hg10 mi
8:53 AM61 °FBroken clouds.No wind72%29.96 "Hg10 mi
7:53 AM60 °FMostly cloudy.No wind75%29.96 "Hg10 mi
Weather by CustomWeather, © 2015

See weather overviewHow to use our weather pages